Location: Gajan
(43.0218°N, 1.1244°E)
Time: 09:08:50
(UTC+00:00)

X-37B - Visible Passes

Search period start: 27 September 2021 00:00
Search period end: 07 October 2021 00:00
Orbit: 381 x 393 km, 45.0° (Epoch: 29 August)

Date Brightness Start Highest point End Pass type
(mag) Time Alt. Az. Time Alt. Az. Time Alt. Az.
27 Sep 3.4 03:21:20 19° ENE 03:21:20 19° ENE 03:22:24 10° ENE visible
27 Sep 1.0 04:53:37 16° WNW 04:55:59 56° N 04:59:07 10° E visible
28 Sep 1.2 03:57:54 54° NNE 03:57:54 54° NNE 04:00:40 10° ENE visible
29 Sep 4.2 03:02:12 10° ENE 03:02:12 10° ENE 03:02:15 10° ENE visible
29 Sep 0.9 04:34:29 28° WNW 04:35:55 61° N 04:39:02 10° E visible
30 Sep 2.6 03:38:49 29° ENE 03:38:49 29° ENE 03:40:35 10° E visible
30 Sep 0.6 05:11:07 11° WNW 05:14:12 76° SSW 05:17:21 10° ESE visible
01 Oct 0.5 04:15:30 67° NW 04:15:48 77° NNE 04:18:58 10° E visible
02 Oct 3.8 03:19:58 14° E 03:19:58 14° E 03:20:31 10° E visible
02 Oct 0.9 04:52:15 22° W 04:54:00 47° SSW 04:57:03 10° SE visible
03 Oct 1.9 03:56:49 35° ESE 03:56:49 35° ESE 03:58:49 10° ESE visible
04 Oct 1.7 04:33:47 28° SSW 04:33:47 28° SSW 04:36:30 10° SSE visible
